Weather History for Grand Rapids, MI

Change the Weather History Date:

Thursday, April 24, 2014

  Actual Average Record
Temperature  
Mean Temperature 51 °F 51 °F  
Max Temperature 59 °F 62 °F 86 °F (1915)
Min Temperature 42 °F 41 °F 26 °F (1971)
Degree Days  
Heating Degree Days 14 14  
Month to date heating degree days 438 441  
Since 1 July heating degree days 6902 6128  
Cooling Degree Days 0 0  
Month to date cooling degree days 2 0  
Year to date cooling degree days 2 1  
Moisture  
Dew Point 27 °F    
Average Humidity 46    
Maximum Humidity 67    
Minimum Humidity 25    
Precipitation  
Precipitation T in 0.11 in 1.46 in (1957)
Month to date precipitation 1.81 2.66  
Year to date precipitation 9.15 8.91  
Snow  
Snow 0.00 in 0.10 in 2.40 in (1980)
Month to date snowfall 1.8 1.8  
Since 1 July snowfall 116.0 74.9  
Snow Depth 0.00 in    
Sea Level Pressure  
Sea Level Pressure 30.02 in    
Wind  
Wind Speed 14 mph (ESE)    
Max Wind Speed 29 mph    
Max Gust Speed 36 mph    
Visibility 10 miles    
Events Rain    
T = Trace of Precipitation, MM = Missing Value Source: NWS Daily Summary

Daily Weather History Graph

Daily Weather History Graph

Search for Another Location

Airport:

Trip Planner

Search our weather history database for the weather conditions in past years. The results will help you decide how hot, cold, wet, or windy it might be!

Date:

Astronomy

Apr. 24, 2014 Rise Set
Actual Time 6:46 AM EDT 8:34 PM EDT
Civil Twilight 6:16 AM EDT 9:05 PM EDT
Nautical Twilight 5:39 AM EDT 9:42 PM EDT
Astronomical Twilight 4:59 AM EDT 10:22 PM EDT
Moon 4:04 AM EDT (4/24) 3:42 PM EDT (4/24)
Length of Visible Light 14h 49m
Length of Day
13h 48m
Waning Crescent, 24% of the Moon is Illuminated
Apr 24
Waning Crescent
Apr 29
New
May 6
First Quarter
May 14
Full
May 21
Last Quarter

Hourly Weather History & Observations

Time (EDT) Temp. Windchill Dew Point Humidity Pressure Visibility Wind Dir Wind Speed Gust Speed Precip Events Conditions
12:53 AM 46.9 °F - 27.0 °F 46% 30.10 in 10.0 mi ENE 3.5 mph - N/A   Clear
1:53 AM 45.0 °F 42.6 °F 28.9 °F 53% 30.10 in 10.0 mi ENE 4.6 mph - N/A   Clear
2:53 AM 45.0 °F 42.6 °F 30.0 °F 56% 30.10 in 10.0 mi ENE 4.6 mph - N/A   Scattered Clouds
3:53 AM 45.0 °F 40.1 °F 30.0 °F 56% 30.11 in 10.0 mi ENE 9.2 mph - N/A   Overcast
4:53 AM 44.1 °F 41.5 °F 30.9 °F 60% 30.12 in 10.0 mi ENE 4.6 mph - N/A   Overcast
5:53 AM 43.0 °F 39.5 °F 30.9 °F 62% 30.13 in 10.0 mi ESE 5.8 mph - N/A   Overcast
6:53 AM 43.0 °F 38.8 °F 32.0 °F 65% 30.12 in 10.0 mi ENE 6.9 mph - N/A   Overcast
7:53 AM 44.1 °F 40.1 °F 33.1 °F 65% 30.13 in 10.0 mi ESE 6.9 mph - N/A   Overcast
8:53 AM 48.0 °F - 33.1 °F 56% 30.13 in 10.0 mi ESE 10.4 mph - N/A   Overcast
9:53 AM 50.0 °F - 30.9 °F 48% 30.12 in 10.0 mi SE 10.4 mph - N/A   Overcast
10:53 AM 51.1 °F - 30.0 °F 44% 30.11 in 10.0 mi SE 12.7 mph - 0.00 in Rain Light Rain
11:53 AM 52.0 °F - 33.1 °F 49% 30.09 in 10.0 mi SE 15.0 mph - 0.00 in Rain Light Rain
12:53 PM 55.0 °F - 28.9 °F 37% 30.06 in 10.0 mi SE 19.6 mph 24.2 mph 0.00 in   Mostly Cloudy
1:53 PM 55.9 °F - 27.0 °F 33% 30.04 in 10.0 mi ESE 16.1 mph - N/A   Overcast
2:53 PM 55.9 °F - 24.1 °F 29% 30.01 in 10.0 mi SE 18.4 mph 27.6 mph N/A   Overcast
3:53 PM 55.9 °F - 21.9 °F 27% 29.98 in 10.0 mi ESE 20.7 mph 29.9 mph N/A   Overcast
4:53 PM 57.9 °F - 23.0 °F 26% 29.94 in 10.0 mi SE 18.4 mph - N/A   Overcast
5:53 PM 57.0 °F - 26.1 °F 30% 29.90 in 10.0 mi ESE 23.0 mph 28.8 mph N/A   Overcast
6:53 PM 55.0 °F - 25.0 °F 31% 29.87 in 10.0 mi ESE 26.5 mph 35.7 mph 0.00 in   Mostly Cloudy
7:53 PM 53.1 °F - 21.9 °F 30% 29.86 in 10.0 mi ESE 20.7 mph 26.5 mph N/A   Overcast
8:53 PM 51.1 °F - 21.0 °F 31% 29.85 in 10.0 mi ESE 16.1 mph - N/A   Overcast
9:53 PM 48.9 °F - 21.0 °F 33% 29.86 in 10.0 mi ESE 13.8 mph - N/A   Overcast
10:53 PM 48.9 °F - 21.0 °F 33% 29.86 in 10.0 mi ESE 11.5 mph - N/A   Overcast
11:53 PM 48.0 °F - 21.9 °F 36% 29.83 in 10.0 mi ESE 13.8 mph - N/A   Overcast